Regional Weather Roundup
Issued by NWS

Current Version | Previous Version | Text Only | Print | Product List | Glossary On
Versions: 1 2 3 4 5 6 7 8 9 10 11 12 13 14 15 16 17 18 19 20 21 22 23 24 25 26 27 28 29 30 31 32 33 34 35 36 37 38 39 40 41 42 43 44 45 46 47 48 49 50
000
ASUS42 KKEY 281910
RWRKEY

FLORIDA REGIONAL WEATHER ROUNDUP FOR THE FLORIDA KEYS
NATIONAL WEATHER SERVICE KEY WEST FLORIDA
300 PM EDT FRI AUG 28 2015

...SOUTH FLORIDA AND THE KEYS...

CITY           SKY/WX    TMP DP  RH WIND       PRES   REMARKS
FORT MYERS     CLOUDY    89  71  55 W10       29.97F HX  95
SW REGIONAL AP MOSUNNY   92  70  48 SE6       29.97F HX  97
NAPLES         SUNNY     92  76  59 SW14      29.96F HX 104
MIAMI          MOSUNNY   90  75  61 SE9       29.98F HX 100
WEST KENDALL   SUNNY     90  75  61 E9        29.98F HX 100
HOMESTEAD      SUNNY     89  72  57 E10       29.98F HX  95
MARATHON       MOSUNNY   92  78  63 VRB5      29.97F HX 107
BOCA CHICA NAS MOSUNNY   92  70  48 VRB7      29.97F HX  97
KEY WEST INTL  SUNNY     90  73  57 E7        29.97F HX  98

...INTERNATIONAL WEATHER...

CITY           SKY/WX    TMP DP  RH WIND       PRES   REMARKS
NASSAU BAHAMAS NOT AVBL
CANCUN MEXICO  PTSUNNY   90  77  66 E10       29.93F HX 102
COZUMEL MEXICO PTSUNNY   82  77  83 NE9       29.92F HX  91

ADJACENT COASTAL WATERS...

STATION/POSITION TIME  SKY/WX   TEMP    WIND        PRES    WAVE
                                AIR SEA DIR/SP/G            HT/PER
                 (UTC)          (F)     (DEG/KT/KT) (MB)    (FT/S)
PULASKI SHOAL LI 1800            87     190/  8/  8 1015.2F
SAND KEY         1850            86     100/  5     1014.8F
SOMBRERO KEY     NOT AVBL
LONG KEY         1900            85 88  120/  7/  9 1015.5F
MOLASSES REEF    1900            84 89  110/ 10/ 11 1014.9F
FOWEY ROCKS      NOT AVBL

$$



USA.gov is the U.S. government's official web portal to all federal, state and local government web resources and services.